Location: River House Observatory
(37.8577°N, 76.3548°W)
Time: 15:13:59
(UTC-04:00)

Daily predictions for brighter satellites

Satellite Brightness Start Highest point End
(mag) Time Altitude Azimuth Time Altitude Azimuth Time Altitude Azimuth
NOSS 3-2 (C) 4.2 20:28:33 10° NNW 20:36:10 73° NE 20:44:21 10° SE
Cosmos 1943 Rocket 2.7 20:32:12 10° N 20:37:36 46° ENE 20:42:54 10° SE
Meteor 1-18 Rocket 4.4 20:32:14 10° S 20:38:03 60° E 20:43:53 10° NNE
Cosmos 1818 4.0 20:33:45 10° S 20:38:45 39° ESE 20:43:47 10° NE
OAO 2 Rocket 4.0 20:35:32 10° SW 20:39:59 35° SSE 20:44:31 10° E
Meteor 1-29 4.1 20:37:57 10° NE 20:40:44 23° E 20:43:30 10° SSE
COSMOS 2406 4.3 20:39:07 10° SSE 20:43:29 23° E 20:47:49 10° NE
Okean 1 Rocket 4.3 20:39:24 10° NNW 20:43:41 45° W 20:47:56 10° SSW
CZ-3A R/B 3.3 20:41:46 10° S 20:44:39 13° SSE 20:46:34 10° ESE
Cosmos 1500 3.8 20:41:28 10° N 20:45:01 37° E 20:48:30 10° SSE
ERS-1 Rocket 4.5 20:42:29 10° ESE 20:46:07 20° ENE 20:49:45 10° NNE
Cosmos 1437 4.1 20:45:03 10° SE 20:47:33 21° E 20:50:03 10° NE
ALOS 4.2 20:44:14 10° SSW 20:48:18 30° W 20:52:24 10° NW
NOSS 2-2 (D) 4.2 20:46:39 10° S 20:50:06 29° ESE 20:53:50 10° NE
Cosmos 1975 Rocket 3.7 20:48:24 10° SSW 20:52:50 64° W 20:57:17 10° N
Cosmos 773 Rocket 4.1 20:52:26 10° S 20:57:26 53° ESE 21:02:26 10° NNE
Cosmos 2315 Rocket 4.0 20:51:45 10° S 20:57:59 80° E 21:04:19 10° N
CZ-4B DEB 3.4 20:55:25 10° SE 20:58:09 34° ENE 21:00:56 10° N
NOSS 3-2 (A) 4.4 20:51:21 10° NW 20:58:58 69° WSW 21:07:05 10° SSE
USA 186 2.2 20:56:45 10° S 20:59:58 63° W 21:03:09 10° NNW
Cosmos 1812 3.5 20:56:15 10° SSW 21:00:03 55° W 21:03:53 10° N
CENTAUR R/B 3.7 20:53:28 10° NNW 21:00:57 44° NE 21:08:31 11° ESE
SJ-11-01 4.5 20:57:03 10° SSE 21:01:36 54° ENE 21:06:11 10° N
Cosmos 2263 4.4 20:57:33 10° NNW 21:03:21 80° WSW 21:09:04 10° SSE
CZ-2D R/B 4.4 21:00:27 10° S 21:04:06 42° W 21:07:44 10° NNW
Cosmos 1743 3.8 21:03:59 10° NNE 21:07:24 29° ENE 21:10:05 14° SE
NOSS 2-2 (C) 3.6 21:04:55 10° SSW 21:08:45 48° ESE 21:12:57 10° NE
Aureole 1 Rocket 3.9 21:10:55 15° SE 21:12:13 18° ESE 21:14:28 10° ENE
Cosmos 1536 Rocket 3.5 21:10:11 10° S 21:14:27 64° E 21:18:44 10° NNE
ASTRO E2 3.6 21:13:21 10° WSW 21:16:55 31° S 21:19:15 18° SE
Cosmos 1680 Rocket 4.0 21:12:29 10° SSE 21:17:15 37° E 21:22:02 10° NE
SL-27 R/B 4.1 21:17:16 17° ESE 21:18:07 18° E 21:20:41 10° NE
Helios 1A 3.3 21:20:30 10° S 21:24:41 65° WSW 21:28:54 10° NNW
PSLV R/B 4.0 21:26:16 10° W 21:29:18 46° N 21:32:18 10° ENE
Resurs 01 Rocket 3.9 21:26:39 10° SSW 21:30:06 22° W 21:33:35 10° NW
Meteor 2-4 Rocket 4.1 21:25:07 11° SSE 21:30:07 44° E 21:35:32 10° NNE
Envisat 3.5 21:27:15 10° S 21:32:14 59° W 21:37:16 10° NNW
Cosmos 1544 Rocket 4.3 21:29:38 10° NNW 21:33:50 51° W 21:38:01 10° S
SPOT 5 3.7 21:34:31 20° ESE 21:36:25 28° ENE 21:40:06 10° N
Cosmos 1666 3.0 21:37:03 10° N 21:40:42 47° E 21:42:12 29° SE
Nadezhda 1 Rocket 4.1 21:36:09 11° SSE 21:42:03 58° E 21:48:17 10° NNE
Meteor 1-19 Rocket 4.3 21:41:26 10° S 21:47:17 89° W 21:53:05 10° N
Cosmos 1025 Rocket 3.5 21:45:55 28° SE 21:47:26 38° E 21:51:24 10° NNE
ASTEX 1 3.3 21:43:57 19° SSE 21:47:28 74° E 21:52:21 10° N
MOS 1-B Rocket 4.0 21:49:25 24° SE 21:52:54 63° ENE 21:58:58 10° N
Aureole 3 Rocket 4.0 21:47:24 10° S 21:54:44 82° W 21:59:54 10° N
Terra 3.7 21:53:59 14° E 21:55:15 16° ENE 21:58:03 10° NNE
Meteor 1-23 Rocket 4.2 21:52:54 21° SSE 21:56:36 58° E 22:02:05 10° NNE
CRYOSAT 2 4.3 21:54:49 23° S 21:57:54 85° E 22:02:46 10° N
Cosmos 405 Rocket 3.7 21:59:31 10° SSW 22:03:05 45° WNW 22:06:45 10° N
Cosmos 1346 4.2 22:03:17 22° SW 22:04:38 38° WNW 22:07:15 10° N
Cosmos 1238 Rocket 4.1 22:00:12 14° S 22:06:04 83° E 22:12:46 10° N
Cosmos 1656 Rocket 3.7 22:01:51 10° NNW 22:07:16 71° WSW 22:10:13 28° S
YAOGAN 6 4.0 22:05:25 18° SSW 22:07:28 33° W 22:10:40 10° NNW
H-2A R/B 3.8 22:08:01 19° E 22:08:45 20° ENE 22:12:00 10° NNE
MetOp-A 4.1 22:06:11 28° SSE 22:09:09 87° WSW 22:14:33 10° NNW
Tiangong 2 1.6 22:06:12 10° WSW 22:08:38 47° SW 22:08:38 47° SW
Cosmos 374 Rocket 4.2 22:09:22 10° NW 22:13:07 79° WSW 22:14:01 51° SSE
COSMOS 2455 4.0 22:08:35 10° NW 22:14:02 37° WSW 22:18:02 17° SSW
Cosmos 2341 Rocket 4.3 22:10:18 10° N 22:16:27 50° E 22:18:46 35° SE
Gbstr 26 Del rocket 4.5 22:09:04 10° NW 22:17:02 89° SW 22:21:19 32° SE
Cosmos 1441 Rocket 3.5 22:15:22 29° SSW 22:17:06 61° W 22:20:49 10° N
Cosmos 1943 Rocket 4.1 22:16:46 10° NW 22:20:57 22° W 22:25:06 10° SSW
OAO 2 Rocket 3.2 22:19:31 10° WSW 22:24:26 62° S 22:25:27 50° SE
ERS-1 Rocket 3.9 22:21:30 20° SSW 22:24:33 43° W 22:29:20 10° NNW
H-2A R/B 2.0 22:24:04 46° SE 22:25:18 60° ENE 22:30:12 10° N
COSMOS 2406 4.2 22:21:55 10° SW 22:27:24 46° WNW 22:32:54 10° N
Okean 1-7 Rocket 4.0 22:25:22 26° SSW 22:27:44 59° W 22:32:11 10° N
USA 267 3.6 22:25:40 10° ENE 22:31:44 40° SE 22:32:18 39° SE
DMSP B5D2-2 4.2 22:27:59 10° NNE 22:33:11 54° E 22:33:58 49° SE
ARGOS 3.3 22:32:23 36° S 22:34:35 68° WSW 22:40:00 10° NNW
Cosmos 2278 4.5 22:35:24 10° N 22:40:43 38° ENE 22:41:57 34° E
Cosmos 2082 Rocket 3.0 22:43:04 33° E 22:43:04 33° E 22:47:22 10° NE
DNEPR-1 R/B 3.8 22:39:10 10° NW 22:43:23 60° WSW 22:43:52 56° SSW
SL-24 DEB 4.2 22:44:02 58° SSW 22:44:52 75° W 22:49:30 10° N
Cosmos 1892 Rocket 3.4 22:44:34 77° S 22:44:52 86° E 22:49:19 10° N
Cosmos 1624 Rocket 3.9 22:40:07 10° NNW 22:45:24 73° ENE 22:46:15 60° SE
Cosmos 2181 Rocket 3.9 22:46:01 42° S 22:48:23 84° E 22:54:45 10° N
IGS 5A 4.0 22:49:33 46° NE 22:49:33 46° NE 22:53:08 10° N
Okean 2 4.2 22:48:37 38° WSW 22:49:35 46° W 22:53:32 10° N
CENTAUR R/B 3.7 22:44:11 10° NW 22:51:50 48° WSW 22:55:43 30° SSW
deb Chang Zheng 4 4.2 22:48:01 10° NNE 22:51:22 44° ENE 22:51:22 44° ENE
Cosmos 2228 3.3 22:50:01 10° N 22:53:47 55° NE 22:53:47 55° NE
Cosmos 1437 Rocket 3.4 22:54:04 10° NNW 22:57:30 50° WNW 22:57:30 50° WNW
Cosmos 2369 4.0 22:53:23 10° NNW 22:59:00 54° ENE 22:59:47 50° E
Cosmos 921 Rocket 3.3 22:56:40 10° N 23:00:46 62° NE 23:00:46 62° NE
Cosmos 1606 Rocket 4.0 22:57:19 10° NNW 23:01:31 52° W 23:01:41 52° WSW
Cosmos 2056 Rocket 3.3 22:58:45 10° NNW 23:03:56 82° WSW 23:04:17 76° SSW
Cosmos 1697 Rocket 3.6 23:06:32 10° N 23:11:37 34° ENE 23:12:12 33° ENE
Cosmos 1726 Rocket 4.2 23:08:43 10° NNW 23:12:47 47° W 23:12:47 47° W
Cosmos 1809 Rocket 4.4 23:07:49 10° N 23:13:53 67° E 23:14:28 63° ESE
SPOT 5 4.4 23:13:45 21° WSW 23:14:29 22° W 23:17:51 10° NW
Cosmos 2058 Rocket 3.5 23:12:28 10° NNW 23:16:28 59° WNW 23:16:28 59° WNW
Landsat 7 4.3 23:17:21 51° WSW 23:17:28 51° W 23:22:07 10° NNW
COSMOS 2487 4.4 23:19:36 27° N 23:19:36 27° N 23:21:25 10° NNE
Meteor 1-16 4.5 23:12:23 10° N 23:17:52 89° E 23:18:06 83° SSE
SL-19 R/B 4.1 23:13:24 10° NNE 23:18:48 79° WNW 23:19:21 70° SW
CARTOSAT-1 4.0 23:19:44 59° NW 23:19:44 59° NW 23:23:27 10° NNW
CZ-4B R/B 3.6 23:15:21 10° NNE 23:19:54 66° ENE 23:19:54 66° ENE
Cosmos 839 Rocket 4.3 23:17:10 10° NNW 23:23:51 87° WSW 23:25:33 58° SSE
Cosmos 864 Rocket 4.3 23:20:08 10° N 23:26:28 77° E 23:27:01 71° SE
Cosmos 1833 Rocket 2.6 23:28:30 78° ENE 23:28:30 78° ENE 23:33:53 10° NNE
Cosmos 1066 Rocket 4.2 23:28:36 66° WSW 23:29:04 70° W 23:34:39 10° N
Terra 2.4 23:32:52 51° W 23:32:52 51° W 23:37:11 10° NNW
Cosmos 1452 Rocket 3.6 23:31:03 10° NNW 23:35:54 72° NNE 23:35:54 72° NNE
Cosmos 1656 3.6 23:31:01 10° NNW 23:36:14 76° NE 23:36:14 76° NE
Spot 4 4.1 23:37:32 65° N 23:37:32 65° N 23:41:37 10° NNW
Meteor 2-16 Rocket 4.4 23:30:56 10° N 23:37:02 65° E 23:37:08 65° E
SL-8 Rocket 4.3 23:35:34 10° NNW 23:41:38 55° W 23:42:35 50° WSW
H-2A R/B 3.4 23:45:08 35° WNW 23:45:08 35° WNW 23:48:40 10° NNW
Cosmos 2366 rocket 3.9 23:39:03 10° NNW 23:45:11 71° W 23:45:36 68° WSW
ISS -0.5 23:52:40 12° NNE 23:52:40 12° NNE 23:53:01 10° NNE
